FLOCK 4E'-3 (46819 NORAD) Tracking and Keplerian Element Data

This shows tracking and keplerian element data for the satellite.

Feedback or suggestion? Click here.




ElementValue
Catalog46819
NameFLOCK 4E'-3
Epoch Orbit429
Epoch Day331.22952446
Epoch Year2020
RAAN31.3756
Inclination97.4965
Eccentricity0.0015151
Argument of Perigee202.6893
Mean Anonmoly229.3014
Mean Motion15.17029534
Decay Rate3.661E-05
L11 46819U 20077G 20331.22952446 .00003661 00000-0 18805-3 0 9998
L22 46819 97.4965 31.3756 0015151 202.6893 229.3014 15.17029534 4291

Live tracking and technical data element details for FLOCK 4E'-3 (NORAD 46819). FLOCK 4E'-3 can be tracked NOW for your location showing map with azimuth and elevation plus other details from your city location.

Track the satellite on the map from your city or location and see movement details for azimuth, elevation, latitude, longitude, range, height, and movement on the map or in text.







IsCatalogInMostPopularTable: catalog: 46819, numindb: 8
Update: records affected: 1



GetName: 46819 FLOCK 4E'-3

Hit Count: updated at: Thu, 26 Nov 2020 20:56:56 GMT